timestamp,gas_concentrations,,corrected_fluxes_and_quality_flags,,,,,,,,,,storage_terms,,,turbulence,,,footprint,,
ISOdate,CO2_1_1_1,H2O_1_1_1,Tau_1_1_1,QcTau_1_1_1,H_1_1_1,QcH_1_1_1,LE_1_1_1, QcLE_1_1_1,Fc_1_1_1, QcFc_1_1_1,E_1_1_1, QcE_1_1_1,Sa_1_1_1,Sw_1_1_1,Sc_1_1_1,ustar_1_1_1,MO_length_1_1_1,ZL_1_1_1,Fetchmax_1_1_1,Fetch70_1_1_1,Fetch90_1_1_1
yyyymmddHHMM,[µmol+1mol_a-1],[mmol+1mol_a-1],[kg+1m-1s-2],[#],[W+1m-2],[#],[W+1m-2],[#],[µmol+1s-1m-2],[#],[mmol+1s-1m-2],[#],[W+1m-2],[W+1m-2],[µmol+1s-1m-2],[m+1s-1],[m],[#],[m],[m],[m]
201406050030,399.40042873766674,8.5294158196447221,7.54463988964338000E-002,0,-34.832002520343913,0,28.038644240906809,0,2.6868699966474434,0,0.62927217359137100,0,-9999.,-9999.,-9999.,0.25543621870718120,40.167157686649212,0.53775276230659019,106.73350988316579,195.14289697345492,292.35961935783706
201406050100,398.77205900884979,8.2772911000907570,9.61400204504771760E-002,0,-37.399370827619094,0,30.654725088538353,0,2.7877659106931292,0,0.68791133063960797,0,-2.5365730754333962,-8.7527877354423982,-0.48953219641217238,0.28827951656500633,53.771700157813747,0.40169828992958173,110.98425924429034,202.91462251256547,304.00308040923784
201406050130,399.58193552758820,8.1624661794973932,0.10593274385395936,0,-37.823127784126477,0,34.997275872822676,0,2.3507784015266084,0,0.78527285113504863,0,-2.6581725604286279,-3.9874803467790012,0.63105549284842699,0.30257006868112846,61.463811915082310,0.35142629991518115,109.23058046581369,199.70833839835049,299.19948254468176
201406050200,400.81901588645343,8.5933468308790033,0.13160145055384656,0,-48.985876592344709,0,14.645794654228906,0,2.0494355401936191,0,0.32855284933789047,0,-5.1390404592614498,14.978231628729320,0.96470328783714876,0.33713444889762634,65.655053337029898,0.32899219332165941,113.70588967115256,207.89063095237378,311.45804779952738
201406050230,401.54812699585949,8.7598819886299815,0.16064489777926094,0,-55.679485014520822,0,54.809240138479367,0,4.7840181778128104,0,1.2295323953501698,0,-0.33358132234978388,5.7902905688466184,0.56868835539830231,0.37245824662136467,77.897529551029024,0.27728735589554604,118.39421352065511,216.46238221346454,324.30009316622829
201406050300,401.42683743617698,8.4038228567008098,0.21299380042567434,0,-65.023193137675577,0,17.242545148255381,0,3.3629962424108761,0,0.38663861323711646,0,-9.9836821985240878,-12.403498532348923,-9.47434822468823656E-002,0.42852446823863183,101.57751395882735,0.21264548774795944,107.51917681910390,196.57934670796706,294.51168281554908
201406050330,401.83185993094202,8.4913673234722573,0.39965205228231826,0,-96.948483958073027,0,69.670925300669253,0,8.7539343725718446,0,1.5622905588741223,0,0.34909814032869863,3.0483347900166842,0.31624475769265165,0.58712590793906871,175.18025152798617,0.12330156973515512,120.06433744925144,219.51590141364571,328.87482135214964
201406050400,400.52486300492603,7.8912295476067751,0.22869810741859944,0,-54.499845108518471,0,46.979763961653738,0,3.9292189173327343,0,1.0531865750526530,0,-6.3457147115202712,-20.933920037559702,-1.0220417731028835,0.44375895596417042,134.58381894538275,0.16049477692980155,111.03652420660423,203.01017953273006,304.14624223821329
201406050430,400.18468071474382,7.5149521066870166,0.21704476937400308,0,-51.350954951672023,0,16.058543269353038,0,1.3145089754544697,0,0.35982183753954200,0,-11.710699277956905,-13.157836853983651,-0.26654429218847858,0.43184482404240010,131.64539820583531,0.16407713672016955,105.56958748204535,193.01487561019641,289.17145557941245
201406050500,399.81809975200343,8.1251896369309087,0.27375494781089493,0,-53.176090554378433,0,46.123465080014462,1,0.43123382865270399,0,1.0337275714633978,1,5.6444229864541908,21.311583354489908,-0.28692664747059521,0.48530264157318387,180.41939112673822,0.11972105584164602,113.43210536859503,207.39006592827388,310.70811017853572
201406050530,397.24995393395710,7.8564681564263861,0.16108102866276808,0,-15.288677349493701,1,66.561632246729104,1,0.43985498068384410,2,1.4923486140966691,1,8.8886443970020430,-9.3693014917575663,-2.0075706278943568,0.37248316042041424,283.74584403054871,7.61244629812956736E-002,106.36373988137471,194.46683947808751,291.34676203597138
201406050600,394.54199961718081,7.5938700220965218,0.22848654247194061,0,10.085296084776081,1,31.320563793712743,0,-5.5078143003074116,0,0.70265428981796862,0,14.530910601680734,-9.1298827188514302,-2.1121610368989265,0.44409498050726737,-728.97604112825513,-2.96306034510669530E-002,111.29665072962761,203.48577377991617,304.85876908511676
201406050630,393.14883178674609,8.2651099663838572,0.33243352640134333,0,38.638444221424827,0,106.59195175814126,0,-9.7182207064656847,0,2.3937455076813627,0,24.020626535527935,23.222162984258393,-1.0823852755016525,0.53679303072156348,-336.02199955826370,-6.42815054621288934E-002,116.23925690414508,212.52243423032220,318.39733313495816
201406050700,389.89529194049834,7.7624393877793443,0.33133556541806147,0,26.759710987645743,1,142.57418790797115,0,-7.8722437215056384,0,3.2062177231716840,0,32.362483930712642,-17.277405047823464,-2.5147990178468476,0.53723306140952065,-486.31029328701112,-4.44160863920930668E-002,118.65524125645686,216.93962416503655,325.01508857455292
201406050730,388.72712293915208,7.6031031668944129,0.54271283077660626,0,113.61745959199045,0,114.45503257536369,0,-12.893039494673936,0,2.5768082260403582,0,26.624712769915888,-5.4476043216331238,-0.89917438348008294,0.68897756304172209,-241.58215226426668,-8.94105785446093898E-002,121.95498383812809,222.97260600325069,334.05359472142521
201406050800,387.10813308698403,8.2388129498429219,0.70389723071301669,0,140.40475634654564,0,117.26215572578236,0,-10.921656894061826,0,2.6417765877049595,0,15.583820313135053,21.646003788967288,-1.2419416015626070,0.78608157599279627,-290.17445448075603,-7.44379791758425918E-002,119.73534420446707,218.91439683516614,327.97365788510223
201406050830,385.58757092909207,9.0777353402232919,0.70209832835332675,0,192.04362179204725,0,112.39978952297257,0,-14.456750757931024,0,2.5346394526510458,0,22.008872636849411,28.453582971862307,-1.1629741109495850,0.78636949592691141,-212.48282823289546,-0.10165527341496486,118.22345457815031,216.15018040579432,323.83235796772038
201406050900,385.29152051874286,9.7041149537183280,0.57090310961868107,0,225.62952686844733,0,114.05836515431071,0,-14.403967308092719,0,2.5730913809446063,0,9.4461874565188388,21.207504027437714,-0.22612348946080144,0.70966508237635573,-132.95128747047769,-0.16246551959714087,116.17270517396625,212.40075644196961,318.21503763540994
201406050930,384.34243249996837,10.274727990551924,0.46293680969592388,0,197.53416143768220,0,111.48878260715779,0,-11.488379626565191,0,2.5175583257343757,0,22.296984839691799,19.237290798414094,-0.72253198769048699,0.64016928401873896,-111.49931691439728,-0.19372315990584257,108.71119914550587,198.75874369665175,297.77681664272671
201406051000,383.38031600497351,10.881695924262482,0.61414377722229196,1,341.99384814258627,0,264.78776923042273,0,-12.468188203880240,0,5.9840340352155375,0,18.376272358106046,20.381436782711681,-0.73011764291552561,0.73860415064611085,-98.899197759592838,-0.21840419830811908,114.17354853365558,208.74566050517350,312.73903787640540
201406051030,382.66714689622182,11.469088315287808,0.56732229014986857,0,256.24420358491955,0,179.08574308250073,0,-12.934804979457509,0,4.0505278733020171,0,18.659787787946843,19.646761313999491,-0.53951781229272022,0.71107602201090514,-117.77481360446714,-0.18340084215748420,114.55793357389504,209.44843895205204,313.79192805282958
201406051100,381.52078336773678,11.648276208391666,0.46960266647990245,1,300.07444186524833,0,175.34876189457739,0,-16.796709251511601,0,3.9682082760460804,0,12.656362266383962,5.9762035042472768,-0.86522852742734513,0.64771441528362661,-75.995800423246678,-0.28422623197205887,105.40652417022062,192.71674386980490,288.72479990558998
201406051130,380.66896135798953,12.148092719818820,0.48228755213655744,1,347.88044301807878,0,249.86948132151409,0,-20.227415179984199,0,5.6594407459330540,0,19.269077876235677,16.601662628142179,-0.64084078604224570,0.65753084196415912,-68.573044332889722,-0.31499257777067924,108.35934869617390,198.11544885832765,296.81304375124978
201406051200,379.73613001343205,12.836434883150078,0.35925815870404010,1,252.91384897034627,0,258.92716292478514,0,-15.261824906618285,0,5.8683948817882952,0,14.665112271543483,22.787777090192012,-0.69991038527696126,0.56833473519068956,-60.898646597626907,-0.35468768530632189,99.085695310306221,181.16025278891277,271.41107039802068
201406051230,379.48818989133764,12.656961480493115,0.19504845236034116,0,44.923291515382864,0,124.06440015186003,0,-11.004197339062189,0,2.8106500518745667,0,-9.5028105524727362,-5.9525192904062560,-0.18629754046671723,0.41845313382359051,-136.83786026297679,-0.15785105056808721,104.67215427388537,191.37408148403847,286.71324698659157
201406051300,381.05030510261741,11.918784378677813,0.36529361488697365,1,262.03118357490166,0,400.23129745926428,1,-19.623980093636433,0,9.0773813659441895,1,25.451928728348538,-24.358637204819303,1.1691090280173591,0.57371326999441030,-60.454090105197722,-0.35729592426936346,106.33425287697870,194.41292782965388,291.26599256262926
201406051330,380.51377889185636,12.115414148876152,0.27121133391275304,0,200.74253492339523,0,226.22457833495403,0,-13.452095767927140,0,5.1318773532352600,0,4.5104622617704360,6.4821380766925758,-0.40123280191551597,0.49455229745679824,-50.545703106343673,-0.42733602804091020,92.664158497925172,169.41963545175756,253.82148620637244
201406051400,381.02588365313835,11.671958390638355,0.29316261368537611,0,109.66027620169255,0,122.17389491217141,0,-11.761985739444757,0,2.7717408947552453,0,1.9559369477618671,-14.611201004837790,0.38279710141288859,0.51424946969590790,-104.01173101809579,-0.20766888300553396,96.966343531340385,177.28540180438173,265.60583753289654
201406051430,381.27304379592323,12.107668696000559,0.30147584685900852,0,63.072026752112478,0,164.71620973546396,1,-11.360455810581726,0,3.7363767633893534,1,-3.1064351151099556,14.364654950590122,0.18483751715475683,0.52141176786675436,-188.51275721922994,-0.11458110484735201,105.84513276408137,193.51866026641861,289.92621679601712
201406051500,382.40496294912492,12.955191614315297,0.63447035148020925,0,46.599905221214819,1,139.52024712626513,1,-6.6592893842420793,0,3.1634451597339295,1,-9.9372068880424127,27.989741612491226,0.84759018739382319,0.75605039193287038,-777.82339086945808,-2.77698000002999726E-002,95.937680520922385,175.40467774609735,262.78817018079229
201406051530,381.75871707531331,13.976008317679540,0.31736142449889887,0,15.766799853856920,0,57.767280892708740,0,-4.3090754585991009,0,1.3077055808348921,0,-36.357672355391621,33.956417370177931,-0.48663117754044805,0.53332332181099229,-807.03901731414817,-2.67645052303487098E-002,93.339385494825208,170.65416575469612,255.67103756104939
201406051600,380.24074046259801,13.919717388214300,0.26089698997381411,0,58.446454658350781,0,106.83315404194087,0,-8.4309794519775973,0,2.4208079644617850,0,22.227645114599810,-1.8641870998665082,-1.1391225477266291,0.48438622506106443,-163.11373154523744,-0.13242294070140578,98.442029023437271,179.98342552968325,269.64796871769119
201406051630,379.43710219743195,13.333709468379821,0.33664900476925447,0,22.497326242229558,1,140.48866376199496,0,-4.9836141277913049,0,3.1833754734241286,0,-0.40153242445110365,-19.405047003256460,-0.60300151753211939,0.55020095045330497,-620.88316751932052,-3.47891537892720468E-002,102.75736185326626,187.87323024742639,281.46833389552711
201406051700,378.45764614287089,13.438665346325221,0.26002390408851134,0,18.338617589870001,0,63.356002435866642,0,-6.3722747669893112,0,1.4355173132285222,0,-1.3506782030879216,3.4758344053791368,-0.73495023824861949,0.48354887454283257,-516.99258734926082,-4.17800961339661325E-002,97.698394841402461,178.62382507496565,267.61103948488363
201406051730,377.44500093294312,13.964754257868597,0.21679149232642037,0,-7.8365715071498894,0,58.006869035708782,0,-4.4243194754185691,0,1.3137740604347803,0,-9.3662858892072371,17.453988437435374,-0.76091142755634611,0.44126184040529609,919.40849367103147,2.34933657331738537E-002,106.99257108104511,195.61654346650968,293.06922811412448
201406051800,376.41093086328925,14.291187114867739,9.31450055238768615E-002,0,-13.406552094559039,0,31.473239848231103,0,-2.3963334714959448,0,0.71265553545799754,0,-5.3860301861360647,10.841353467948228,-0.77763861411205848,0.28913885728870148,151.20334091486396,0.14285398635577784,108.15832671420240,197.74791656261092,296.26241339911314
201406051830,375.88938034574636,14.549260792829172,2.51330536707417528E-002,0,-10.453971966378020,0,14.152740966851310,0,-0.62649986079985098,0,0.32036554133089740,0,-6.9601169404639052,8.5832611359023208,-0.39265418814346897,0.15011621577018219,27.138719678074278,0.79591079668547959,158.72723938059244,1424.0000000000000,6886.0000000000000
201406051900,377.07025717199753,14.849210228370801,6.89459350022407491E-002,0,-22.260651963220290,0,22.402937684370098,0,-0.31801576998910741,1,0.50693756446721872,0,-8.1662344197751384,9.9937271592723036,0.89029419703238799,0.24847147219919755,57.802337695508442,0.37368730852694282,106.29959438312405,194.34956104912789,291.17105757846207
201406051930,378.51302521780133,14.698666036962711,6.04222173677244831E-002,0,-28.338619973067615,0,19.847799240853014,0,1.5188862797475302,0,0.44893838805940184,0,-9.1988465058769382,-5.0250016247554701,1.0892889615034285,0.23243379697245520,37.166954241690064,0.58116142257821446,104.89927505783875,191.78933071356406,287.33536600073762
201406052000,379.33358125655377,14.679333439360949,1.03277832962210461E-002,0,-3.0610186606102165,0,2.5111829363529021,0,0.22083961786190920,0,5.67844119299845060E-002,0,-6.5019965763908756,-0.64618328782038670,0.62018968262057328,9.60435175773710348E-002,24.276997628701636,0.88973110803715127,387.07603607375614,3900.0000000000000,-9999.
201406052030,380.08103581246496,14.774619124541211,3.26366866877963666E-003,0,-0.62994195237642092,1,2.1075154984313329,1,0.16886073420818909,1,4.76493032232157832E-002,1,-3.4228383039975321,3.1878030986062194,0.56537213216830817,5.39707858173674587E-002,20.936871119325172,1.0316727784631938,1010.3593493968689,-9999.,-9999.
201406052100,381.25393287958576,14.453213772012774,1.56398045044395875E-002,0,-10.552865631936577,0,5.7792945855302440,0,1.2422606789476687,0,0.13059974363258237,0,-11.519458411411945,-10.779080800728718,0.88890636304770543,0.11802433934567547,13.070833610242017,1.6525342333999813,404.28482770795853,3682.0000000000000,-9999.
201406052130,382.51993473356418,14.194728715438877,2.86310457758959247E-002,1,-23.794791676028638,0,18.471810773145169,0,2.7372792932797729,0,0.41723981065605359,0,-10.111507760608909,-8.6864091906612408,0.96098244300576829,0.15955509817582175,14.321532251248797,1.5082185077030805,320.29521383069738,2872.0000000000000,-9999.
201406052200,384.82262350018658,14.094687761213221,4.47151199539382593E-002,0,-34.953159359496830,0,18.612342336823751,0,4.0529575192596576,0,0.42020455580697114,0,-11.475652265194952,-3.3694931053882824,1.7509821290812613,0.19921789255515082,18.976738311141997,1.1382356464976799,238.50669408314818,2155.0000000000000,-9999.
201406052230,396.69680723312359,14.932044996399277,0.18134176668080318,0,-9.5102399623332605,2,-20.275803527857246,2,-0.50796022002607144,2,-0.45708697849622909,2,-34.087745021428873,28.402689661898478,9.0797362033189000,0.40013606766123239,565.33013735260079,3.82077631685287522E-002,116.64131602159907,213.25752652720669,319.49863534704571
201406052300,397.20062621506452,15.023174668275757,0.10489377036471388,0,-24.751913420609473,0,19.837890968770012,0,7.2818807722093943,0,0.44670054444508117,0,-26.814166335098388,3.1080294848657353,0.38691969112359931,0.30367058908775413,94.956098483846219,0.22747354140371046,99.846704640930497,182.55162055677133,273.49559285467575
201406052330,393.74534360672959,14.621323205040621,4.96052789897540800E-002,0,-9.9723116002105883,0,9.0731247789216862,0,3.4111696337925754,0,0.20423173445569981,0,-8.3130548365626584,-13.728202922250706,-2.6570397539702708,0.20867699029065268,76.475936380888001,0.28244178524890906,109.87965090374117,200.89504616928059,300.97738703200372
201406060000,391.05186646076220,14.364493961744373,1.21295191715263696E-002,1,-2.1344798521829751,1,2.6448174595841505,1,0.70611721003300665,1,5.95288365097145569E-002,1,-1.8634721908518557,-8.7765605342925603,-2.0716904616882497,0.10317219197068125,43.177018051549524,0.50026613635549166,32.449033064141865,250.00000000000000,1078.0000000000000
